Regional Weather Roundup
Issued by NWS State College, PA

Home | Current Version | Previous Version | Text Only | Print | Product List | Glossary On
Versions: 1 2 3 4 5 6 7 8 9 10 11 12 13 14 15 16 17 18 19 20 21 22 23 24 25 26 27 28 29 30 31 32 33 34 35 36 37 38 39 40 41 42 43 44 45 46 47 48 49 50
000
ASUS41 KCTP 030610
RWRCTP

REGIONAL WEATHER ROUNDUP
NATIONAL WEATHER SERVICE STATE COLLEGE PA
200 AM EDT WED SEP 03 2014

Note: "fair" indicates few or no clouds below 12,000 feet with no
significant weather and/or obstructions to visibility.

* = STATION THAT DOES NOT REPORT PRECIPITATION /E.G. RAIN...SNOW...ETC/
    THUNDER OR FOG.

PAZ002>004-007>009-013>016-020>023-029>032-030700-
WESTERN PENNSYLVANIA

CITY           SKY/WX    TMP DP  RH WIND       PRES   REMARKS
ERIE           FAIR      64  62  93 S3        29.97S
MEADVILLE      FOG       65  63  93 SW3       30.00S VSB 1/4
FRANKLIN*      CLOUDY    61  59  94 CALM      30.02S VSB 1/4
NEW CASTLE     FOG       61  61 100 CALM      30.01R VSB 1/4
BEAVER COUNTY  NOT AVBL
BUTLER*        FAIR      63  59  88 CALM      30.01S
PITTSBURGH INT FAIR      65  64  97 CALM      30.00R
PITTSBURGH     FAIR      68  63  84 W6        30.00R
INDIANA*       CLOUDY    66  66 100 CALM      30.04S
LATROBE        CLEAR     66  66 100 CALM      30.01S
WASHINGTON CO* FAIR      63  61  94 CALM      30.01S
$$

PAZ004>006-010>012-017>019-024>028-033>037-041-042-045-046-049>053-030700-
CENTRAL PENNSYLVANIA

CITY           SKY/WX    TMP DP  RH WIND       PRES   REMARKS
BRADFORD       CLOUDY    61  59  93 NW3       30.00F
DUBOIS         FAIR      63  62  97 W6        30.00S
CLEARFIELD     CLOUDY    65  64  97 CALM      30.00S
JOHNSTOWN      CLOUDY    66  64  93 W3        30.03S
ALTOONA        FAIR      67  65  93 S6        30.01R
STATE COLLEGE  FAIR      65  63  93 SW5       29.98S
WILLIAMSPORT   FAIR      65  62  90 NW3       29.93R
SELINSGROVE    FAIR      64  63  96 CALM      29.95R FOG
FT INDIANTOWN  FAIR      73  68  84 W9        29.94R
CAPITAL CITY   FAIR      70  67  90 W6        29.93S
HARRISBURG     MOCLDY    73  68  84 NW6       29.92S
YORK           FAIR      67  66  97 CALM      29.94S
$$

PAZ038>040-043-044-047-048-054-055-060>062-067>071-030700-
EASTERN PENNSYLVANIA

CITY           SKY/WX    TMP DP  RH WIND       PRES   REMARKS
SCRANTON       FAIR      68  63  84 SW5       29.93S
MOUNT POCONO   FAIR      65  61  87 NW13G22   29.94R
ALLENTOWN      FAIR      71  63  75 W7        29.90R
QUAKERTOWN*    FAIR      72  66  83 CALM      29.92S
READING        FAIR      72  67  84 W7        29.91S
LANCASTER      FAIR      70  67  90 W5        29.93S
COATESVILLE    FAIR      72  68  88 NW8       29.94S
POTTSTOWN      FAIR      70  67  90 CALM      29.93R
BLUE BELL      FAIR      73  68  83 CALM      29.90S
DOYLESTOWN     FAIR      72  67  84 W3        29.90R
WILLOW GROVE   NOT AVBL
NORTH PHILA    FAIR      76  66  71 NW9       29.90R
PHILADELPHIA   MOCLDY    76  68  76 W8        29.90R
$$


USA.gov is the U.S. government's official web portal to all federal, state and local government web resources and services.